Regional Weather Roundup
Issued by NWS

Home | Current Version | Previous Version | Graphics & Text | Print | Product List | Glossary On
Versions: 1 2 3 4 5 6 7 8 9 10 11 12 13 14 15 16 17 18 19 20 21 22 23 24 25 26 27 28 29 30 31 32 33 34 35 36 37 38 39 40 41 42 43 44 45 46 47 48 49
000
ASUS45 KBOU 201907
RWRCO

WEATHER ROUNDUP FOR COLORADO
NATIONAL WEATHER SERVICE DENVER/BOULDER CO
100 PM MDT SAT SEP 20 2014

NOTE: "FAIR" INDICATES FEW OR NO CLOUDS BELOW 12000 FEET WITH NO
SIGNIFICANT WEATHER AND/OR OBSTRUCTIONS TO VISIBILITY.

COZ001>005-013-030-031-202000-
...NORTHWEST COLORADO...

CITY           SKY/WX    TMP DP  RH WIND       PRES   REMARKS
CRAIG          SUNNY     76  37  24 NW3       30.31F
HAYDEN         SUNNY     73  30  20 CALM      30.32F
MEEKER         NOT AVBL
MOUNT WERNER   NOT AVBL
STEAMBOAT SPGS SUNNY     72  32  22 E3        30.34S
WALDEN         SUNNY     70  23  17 CALM      30.42S
$$

COZ006>008-011-202000-
...WEST CENTRAL VALLEYS...

CITY           SKY/WX    TMP DP  RH WIND       PRES   REMARKS
GRAND JUNCTION SUNNY     84  45  25 SW5       30.14F
MONTROSE       SUNNY     80  44  27 N8        30.22F
EAGLE          MOSUNNY   75  39  27 CALM      30.30F
RIFLE          SUNNY     80  42  25 CALM      30.21F
DELTA          SUNNY     83  44  24 CALM      30.17F
NUCLA          SUNNY     81  43  26 CALM      30.22F
$$

COZ017>023-064>068-202000-
...SOUTHWEST COLORADO...

CITY           SKY/WX    TMP DP  RH WIND       PRES   REMARKS
DURANGO        SUNNY     82  38  20 NE6       30.24F
CORTEZ         SUNNY     84  46  26 SW12      30.19F
PAGOSA SPRINGS SUNNY     79  28  15 CALM      30.31F
TELLURIDE      NOT AVBL
WOLF CREEK PAS CLOUDY    54  32  43 CALM      30.65S
$$

COZ009-010-012-014-032>034-037-058>063-202000-
...CENTRAL COLORADO...

CITY           SKY/WX    TMP DP  RH WIND       PRES   REMARKS
ASPEN          SUNNY     77  38  24 N9        30.34F
BUENA VISTA    SUNNY     78  32  19 E6        30.36F
COPPER MTN     PTSUNNY   61  32  33 W10       30.68F
BERTHOUD PASS  FAIR      52  50  93 N6        30.74S
COTTONWOOD PAS SUNNY     73  32  21 SE8G20    30.50F
GUNNISON       SUNNY     73  41  31 NE7       30.35F
KREMMLING      SUNNY     73  32  21 W3        30.37F
LEADVILLE      MOSUNNY   67  29  24 N9        30.49F
MONARCH PASS   MOSUNNY   55  36  47 E7        30.77S
SALIDA         SUNNY     81  36  20 E7        30.39F
SUNLIGHT       SUNNY     63  39  42 CALM      30.61S
WILKERSON PASS NOT AVBL
$$

COZ069>075-202000-
...SAN LUIS VALLEY/SANGRE DE CRISTO MOUNTAINS...

CITY           SKY/WX    TMP DP  RH WIND       PRES   REMARKS
ALAMOSA        SUNNY     79  39  23 VRB5      30.32F
LA VETA PASS   NOT AVBL
SAGUACHE       NOT AVBL
$$

COZ035-036-038>040-202000-
...NORTHERN COLORADO FRONT RANGE...

CITY           SKY/WX    TMP DP  RH WIND       PRES   REMARKS
DENVER INTL AP MOSUNNY   75  49  39 CALM      30.26F
DMNS CITY PARK   N/A     75  47  36 SE3G9     30.25F
AURORA         MOSUNNY   74  49  41 N7        30.27F
FRONT RANGE AP NOT AVBL
ERIE MUNI ARPT SUNNY     75  45  33 CALM      30.24F
BOULDER MUN AP SUNNY     73  45  35 NE3       30.25S
CENTENNIAL     MOSUNNY   71  47  42 CALM      30.28F
BROOMFIELD     MOSUNNY   75  46  35 CALM      30.28F
FORT COLLINS   SUNNY     75  48  38 S5        30.24F
LONGMONT       SUNNY     79  48  33 SE3       30.25F
$$

COZ041-046-047-076>085-087-088-202000-
...PIKES PEAK/PALMER DIVIDE AND SOUTHERN FOOTHILLS...

CITY           SKY/WX    TMP DP  RH WIND       PRES   REMARKS
COLO. SPRINGS  MOSUNNY   81  45  28 E13       30.28S
A. F. ACADEMY  SUNNY     76  45  33 N7        30.30F
ELLICOTT       NOT AVBL
FALCON         SUNNY     76  44  31 N7        30.34S
FORT CARSON    SUNNY     82  45  27 NE7       30.25S
LIMON          SUNNY     77  48  35 N8G17     30.25S
MONUMENT HILL  SUNNY     70  45  40 N6        30.35S
TRINIDAD       SUNNY     81  47  30 E10       30.24S
$$

COZ042>045-048>051-090-091-202000-
...NORTHEAST COLORADO...

CITY           SKY/WX    TMP DP  RH WIND       PRES   REMARKS
GREELEY ARPT   SUNNY     73  46  38 CALM      30.23F
AKRON          SUNNY     77  49  37 NE12      30.22S
BURLINGTON     SUNNY     80  51  36 NE15G24   30.16F
WRAY           SUNNY     83  46  28 E12       30.15S
STERLING       SUNNY     81  52  36 NE7       30.19S
HOLYOKE        SUNNY     82  46  28 NE8       30.16F
FORT MORGAN    SUNNY     76  47  35 E8        30.23F
$$

COZ086-089-092>099-202000-
...SOUTHEAST COLORADO...

CITY           SKY/WX    TMP DP  RH WIND       PRES   REMARKS
PUEBLO         SUNNY     86  49  27 S12       30.17F
LA JUNTA       SUNNY     88  50  27 NE14G20   30.14F
LAMAR          SUNNY     90  53  28 NE15      30.07F
SPRINGFIELD      N/A     86  54  33 N8        30.12S
$$


USA.gov is the U.S. government's official web portal to all federal, state and local government web resources and services.